Burley, ID

1:42 PM MDT on July 22, 2017 (GMT -0600)
Burley Municipal

Weather History for KBYI - February, 2014

Change the Weather History Date:

Tuesday, February 18, 2014

  Actual Average Record
Temperature  
Mean Temperature 40 °F 32 °F  
Max Temperature 48 °F 41 °F 62 °F (1958)
Min Temperature 32 °F 22 °F 4 °F (1984)
Degree Days  
Heating Degree Days 25 33  
Month to date heating degree days 565 638  
Since 1 July heating degree days 4455 4704  
Cooling Degree Days 0 0  
Month to date cooling degree days 0 0  
Year to date cooling degree days 0 0  
Moisture  
Dew Point 26 °F    
Average Humidity 63    
Maximum Humidity 89    
Minimum Humidity 36    
Precipitation  
Precipitation 0.00 in 0.03 in 0.32 in (1980)
Month to date precipitation 1.16 0.47  
Year to date precipitation 1.76 1.38  
Sea Level Pressure  
Sea Level Pressure 30.02 in    
Wind  
Wind Speed 11 mph (SW)    
Max Wind Speed 26 mph    
Max Gust Speed 34 mph    
Visibility 10 miles    
Events      
T = Trace of Precipitation, MM = Missing Value Source: NWS Daily Summary

Daily Weather History Graph

Daily Weather History Graph

Search for Another Location

Airport or City:

Trip Planner

Search our weather history database for the weather conditions in past years. The results will help you decide how hot, cold, wet, or windy it might be!

Date:

Astronomy

Feb. 18, 2014 Rise Set
Actual Time 7:27 AM MST 6:11 PM MST
Civil Twilight 6:58 AM MST 6:39 PM MST
Nautical Twilight 6:25 AM MST 7:12 PM MST
Astronomical Twilight 5:53 AM MST 7:45 PM MST
Moon 10:14 PM MST (2/18) 8:56 AM MST (2/18)
Length of Visible Light 11h 41m
Length of Day
10h 43m
Waning Gibbous, 87% of the Moon is Illuminated
Feb 18
Waning Gibbous
Feb 22
Last Quarter
Mar 1
New
Mar 8
First Quarter
Mar 16
Full

Hourly Weather History & Observations

Time (MST) Temp. Windchill Dew Point Humidity Pressure Visibility Wind Dir Wind Speed Gust Speed Precip Events Conditions
12:53 AM 41.0 °F 32.2 °F 21.0 °F 45% 29.90 in 10.0 mi WSW 18.4 mph 26.5 mph N/A   Clear
1:53 AM 39.9 °F 31.8 °F 23.0 °F 51% 29.92 in 10.0 mi West 15.0 mph - N/A   Mostly Cloudy
2:53 AM 39.0 °F 29.3 °F 25.0 °F 57% 29.96 in 10.0 mi West 19.6 mph 31.1 mph N/A   Overcast
3:53 AM 37.0 °F 27.4 °F 30.9 °F 79% 29.98 in 10.0 mi West 17.3 mph 26.5 mph N/A   Mostly Cloudy
4:53 AM 35.1 °F 28.6 °F 30.9 °F 85% 30.04 in 10.0 mi West 8.1 mph 17.3 mph N/A   Scattered Clouds
5:46 AM 35.1 °F 25.5 °F 30.9 °F 85% 30.07 in 10.0 mi SSW 15.0 mph - N/A   Mostly Cloudy
5:53 AM 34.0 °F 24.6 °F 30.9 °F 89% 30.08 in 10.0 mi SW 13.8 mph - N/A   Scattered Clouds
6:53 AM 34.0 °F 26.0 °F 30.0 °F 85% 30.09 in 10.0 mi WSW 10.4 mph - N/A   Clear
7:53 AM 34.0 °F 25.5 °F 28.9 °F 82% 30.17 in 10.0 mi SW 11.5 mph - N/A   Clear
8:53 AM 37.0 °F 28.9 °F 30.0 °F 76% 30.15 in 10.0 mi SW 12.7 mph - N/A   Clear
9:53 AM 39.0 °F 32.3 °F 28.0 °F 65% 30.16 in 10.0 mi SW 10.4 mph - N/A   Mostly Cloudy
10:53 AM 39.9 °F 33.4 °F 27.0 °F 60% 30.15 in 10.0 mi SW 10.4 mph - N/A   Overcast
11:53 AM 42.1 °F 36.6 °F 25.0 °F 51% 30.14 in 10.0 mi SW 9.2 mph - N/A   Overcast
12:53 PM 45.0 °F 39.3 °F 24.1 °F 44% 30.10 in 10.0 mi WSW 11.5 mph 18.4 mph N/A   Clear
1:53 PM 46.0 °F 43.1 °F 21.9 °F 39% 30.09 in 10.0 mi Variable 5.8 mph - N/A   Clear
2:53 PM 46.9 °F - 21.9 °F 37% 30.05 in 10.0 mi South 5.8 mph - N/A   Clear
3:53 PM 48.0 °F - 23.0 °F 37% 30.03 in 10.0 mi South 3.5 mph - N/A   Clear
4:53 PM 48.0 °F - 23.0 °F 37% 30.00 in 10.0 mi SSW 4.6 mph - N/A   Clear
5:53 PM 44.1 °F - 24.1 °F 45% 30.00 in 10.0 mi Calm Calm - N/A   Mostly Cloudy
6:53 PM 42.1 °F 39.2 °F 27.0 °F 55% 29.97 in 10.0 mi ESE 4.6 mph - N/A   Overcast
7:53 PM 37.9 °F - 28.9 °F 70% 29.96 in 10.0 mi Calm Calm - N/A   Clear
8:53 PM 39.9 °F 31.8 °F 26.1 °F 58% 29.91 in 10.0 mi SSW 15.0 mph - N/A   Scattered Clouds
9:53 PM 42.1 °F 34.2 °F 24.1 °F 49% 29.87 in 10.0 mi SSW 16.1 mph - N/A   Clear
10:53 PM 41.0 °F 33.1 °F 24.1 °F 51% 29.83 in 10.0 mi South 15.0 mph - N/A   Partly Cloudy
11:53 PM 44.1 °F 35.2 °F 24.1 °F 45% 29.78 in 10.0 mi SSW 23.0 mph 32.2 mph N/A   Scattered Clouds